Location: Voyageurs National Park
(48.5020°N, 92.9292°W)
Time: 01:11:44
(UTC-05:00)

Amateur Radio Satellites - All Passes

Search period start: 31 August 2016 00:41
Search period end: 01 September 2016 00:41
Location: Voyageurs National Park, 48.5020°N, 92.9292°W

Satellite Date Start Highest point End Downlink Frequencies (MHz)
Time Altitude Azimuth
M-CUBED/EXP-1 PRIME 31 Aug 00:43:05 00:45:11 13° 267° (W) 00:47:17 437.505
UKube-1 31 Aug 00:44:34 00:48:53 68° 257° (WSW) 00:53:14 .
CUSAT 1 31 Aug 00:50:01 00:52:48 22° 298° (WNW) 00:56:12 437.405
BUGSAT 1 31 Aug 00:50:23 00:53:54 26° 95° (E) 00:57:23 437.445
ITUPSAT 1 31 Aug 00:53:37 00:54:44 11° 52° (NE) 00:55:51 437.325
TIGRISAT 31 Aug 00:54:04 00:57:24 22° 297° (WNW) 01:00:41 435.000
JAS-2 31 Aug 00:55:58 01:02:37 48° 98° (E) 01:09:53 435.910
AISAT 31 Aug 00:55:59 00:59:55 30° 265° (W) 01:03:53 437.250
RS-15 31 Aug 00:57:59 01:08:46 48° 111° (ESE) 01:20:04 29.354- 29.394
ESTCUBE 1 31 Aug 01:04:17 01:07:07 16° 271° (W) 01:09:57 437.505/2401.250
GONETS M04 31 Aug 01:09:44 01:16:51 28° 280° (W) 01:23:57
QB50P1 31 Aug 01:11:35 01:15:48 74° 286° (WNW) 01:19:59 145.935-145.965
SWISSCUBE 31 Aug 01:21:52 01:25:20 20° 60° (ENE) 01:28:48 437.505
POPSAT HIP 1 31 Aug 01:22:01 01:26:11 59° 287° (WNW) 01:30:18 437.405
UNISAT 6 31 Aug 01:25:17 01:26:56 12° 304° (WNW) 01:28:35 437.425
50 SAT 31 Aug 01:30:11 01:31:05 11° 271° (W) 01:31:58 437.505
SPROUT 31 Aug 01:36:21 01:39:48 23° 267° (W) 01:43:16 437.525
BEESAT 31 Aug 01:38:04 01:41:56 25° 62° (ENE) 01:45:49 436.000
CUBEBUG 1 31 Aug 01:38:31 01:39:52 11° 274° (W) 01:41:14 437.445
TISAT 1 31 Aug 01:40:51 01:45:07 78° 258° (WSW) 01:49:23 437.305
Cosmos 2499 31 Aug 01:42:08 01:46:16 17° 283° (WNW) 01:50:27 435.465 / 435.565
DUCHIFAT 1 31 Aug 01:45:32 01:49:26 38° 292° (WNW) 01:53:18 145.980
VELOX 1 31 Aug 01:45:55 01:47:25 11° 273° (W) 01:48:54 145.980
DX 1 31 Aug 01:49:41 01:52:01 14° 271° (W) 01:54:21 434.975-435.025
QB50P2 31 Aug 01:53:49 01:57:25 28° 295° (WNW) 02:01:00 145.880/145.840
POLYITAN 1 31 Aug 01:56:20 01:59:55 27° 295° (WNW) 02:03:28 437.675
SO-50 31 Aug 01:56:42 02:00:20 21° 332° (NNW) 02:03:55 436.795
NANOSAT C BR1 31 Aug 02:01:30 02:05:00 26° 295° (WNW) 02:08:29 145.865
Oscar 19 31 Aug 02:08:05 02:12:51 35° 96° (E) 02:17:34 437.125/150
Gurwin Techsat 1B 31 Aug 02:09:16 02:12:53 18° 89° (E) 02:16:29 435.225
BUGSAT 1 31 Aug 02:25:37 02:29:19 32° 293° (WNW) 02:32:58 437.445
ITUPSAT 1 31 Aug 02:26:57 02:31:39 65° 72° (ENE) 02:36:23 437.325
KKS-1 31 Aug 02:27:02 02:27:36 10° 53° (NE) 02:28:11 437.445
JAS-2 31 Aug 02:41:16 02:47:34 43° 295° (WNW) 02:54:30 435.910
PHONESAT 2.4 31 Aug 02:42:48 02:44:54 17° 175° (S) 02:47:00 2401.200-2431.200
QB50P1 31 Aug 02:50:29 02:50:48 10° 305° (NW) 02:51:08 145.935-145.965
Cosmos 2491 31 Aug 02:53:23 02:57:20 13° 45° (NE) 03:01:16 435.465 / 435.565
MOZHAYETS 4 31 Aug 02:56:16 02:59:47 22° 62° (ENE) 03:03:18
SWISSCUBE 31 Aug 02:58:02 03:02:43 60° 258° (WSW) 03:07:27 437.505
RS-15 31 Aug 03:09:11 03:20:52 67° 317° (NW) 03:33:11 29.354- 29.394
BEESAT 31 Aug 03:14:55 03:19:29 46° 261° (W) 03:24:05 436.000
ITAMSAT 1 31 Aug 03:30:32 03:34:59 28° 94° (E) 03:39:26 435.822/435.867
SO-50 31 Aug 03:41:03 03:42:37 11° 356° (N) 03:44:10 436.795
Oscar 19 31 Aug 03:47:25 03:52:11 38° 295° (WNW) 03:56:57 437.125/150
Gurwin Techsat 1B 31 Aug 03:48:04 03:53:24 72° 288° (WNW) 03:58:41 435.225
KKS-1 31 Aug 03:58:52 04:03:19 67° 72° (ENE) 04:07:48 437.445
ITUPSAT 1 31 Aug 04:06:48 04:09:57 17° 270° (W) 04:13:06 437.325
AO-85 31 Aug 04:14:21 04:17:58 19° 112° (ESE) 04:21:28 145.980
YUBILEINY 31 Aug 04:18:23 04:19:09 10° 66° (ENE) 04:19:55 435.215
PHONESAT 2.4 31 Aug 04:18:50 04:20:37 15° 192° (SSW) 04:22:23 2401.200-2431.200
STARS 31 Aug 04:24:25 04:28:48 62° 72° (ENE) 04:33:12 437.465
CUBESAT XI-V 31 Aug 04:26:12 04:29:56 25° 63° (ENE) 04:33:42 437.345
JAS-2 31 Aug 04:29:48 04:31:06 11° 316° (NW) 04:32:25 435.910
MOZHAYETS 4 31 Aug 04:32:15 04:36:40 49° 261° (W) 04:41:06
AO-7 31 Aug 04:40:06 04:48:11 51° 101° (ESE) 04:56:10 29.400- 29.500
Cosmos 2491 31 Aug 04:48:16 04:56:51 51° 71° (ENE) 05:05:23 435.465 / 435.565
ITAMSAT 1 31 Aug 05:09:42 05:14:38 45° 293° (WNW) 05:19:32 435.822/435.867
HORYU 2 31 Aug 05:09:46 05:12:00 14° 89° (E) 05:14:14 437.375
SO-50 31 Aug 05:22:12 05:25:04 16° 21° (NNE) 05:27:54 436.795
RS-15 31 Aug 05:25:05 05:36:05 38° 349° (NNW) 05:47:25 29.354- 29.394
BRITE-PL 31 Aug 05:25:05 05:27:45 13° 83° (E) 05:30:24 437.365/2234.400
Gurwin Techsat 1B 31 Aug 05:29:54 05:32:27 14° 308° (NW) 05:35:00 435.225
KKS-1 31 Aug 05:37:40 05:40:21 15° 270° (W) 05:43:02 437.445
STRAND 1 31 Aug 05:42:59 05:45:07 13° 52° (NE) 05:47:16 437.568
AO-85 31 Aug 05:52:44 05:57:59 80° 309° (NW) 06:02:55 145.980
Cosmos 2504 31 Aug 05:53:57 05:58:09 15° 75° (ENE) 06:02:14 435.465 / 435.565
CUBESAT XI-V 31 Aug 06:02:40 06:07:05 45° 262° (W) 06:11:34 437.345
STARS 31 Aug 06:02:45 06:05:33 16° 270° (W) 06:08:23 437.465
YUBILEINY 31 Aug 06:05:16 06:13:40 51° 89° (E) 06:22:04 435.215
NOAA 18 31 Aug 06:12:50 06:14:46 12° 85° (E) 06:16:43 137.9125
GOMX 1 31 Aug 06:18:57 06:22:29 18° 87° (E) 06:25:54 467.674
NOAA 15 31 Aug 06:26:59 06:31:10 23° 92° (E) 06:35:19 137.62
Cubesat XI-IV 31 Aug 06:28:10 06:31:52 19° 90° (E) 06:35:31 437.490
AO-7 31 Aug 06:33:07 06:40:54 46° 302° (WNW) 06:48:38 29.400- 29.500
CUTE-I 31 Aug 06:38:25 06:42:36 23° 92° (E) 06:46:45 437.470
LilacSat-2 31 Aug 06:40:35 06:43:20 19° 92° (E) 06:46:05 437.200
HORYU 2 31 Aug 06:44:40 06:49:05 73° 288° (WNW) 06:53:29 437.375
Cosmos 2491 31 Aug 06:45:27 06:53:35 44° 274° (W) 07:01:44 435.465 / 435.565
BRITE-PL 31 Aug 07:01:23 07:07:09 78° 103° (ESE) 07:12:43 437.365/2234.400
SO-50 31 Aug 07:02:08 07:06:40 48° 44° (NE) 07:11:04 436.795
STRAND 1 31 Aug 07:18:21 07:23:25 70° 72° (ENE) 07:28:30 437.568
AO-85 31 Aug 07:35:16 07:39:09 22° 329° (NNW) 07:42:51 145.980
RS-15 31 Aug 07:40:54 07:52:28 44° 22° (NNE) 08:04:06 29.354- 29.394
Cosmos 2504 31 Aug 07:42:00 07:50:14 72° 95° (E) 07:57:53 435.465 / 435.565
DOVE 4 31 Aug 07:42:47 07:47:34 42° 97° (E) 07:52:04 437.250
NOAA 18 31 Aug 07:50:52 07:56:23 76° 105° (ESE) 08:01:50 137.9125
CUSAT 1 31 Aug 07:54:45 07:56:11 11° 52° (NE) 07:57:39 437.405
GOMX 1 31 Aug 07:55:46 08:01:12 75° 287° (WNW) 08:06:19 467.674
CINEMA 3 31 Aug 07:55:55 07:58:42 16° 88° (E) 08:01:24 145.822/145.860
ISS 31 Aug 08:01:54 08:04:37 24° 142° (SE) 08:07:21 145.825
YUBILEINY 31 Aug 08:02:19 08:10:38 44° 291° (WNW) 08:19:00 435.215
NOAA 15 31 Aug 08:06:06 08:11:19 58° 291° (WNW) 08:16:31 137.62
Cubesat XI-IV 31 Aug 08:07:09 08:12:28 71° 288° (WNW) 08:17:46 437.490
LilacSat-2 31 Aug 08:14:17 08:17:49 37° 290° (WNW) 08:21:18 437.200
CUTE-I 31 Aug 08:17:49 08:23:02 58° 290° (WNW) 08:28:13 437.470
HO-68 31 Aug 08:20:02 08:26:13 30° 93° (E) 08:32:19 435.675
HORYU 2 31 Aug 08:23:45 08:24:51 11° 306° (NW) 08:25:58 437.375
AO-7 31 Aug 08:27:30 08:31:40 15° 326° (NW) 08:35:49 29.400- 29.500
SEEDS 31 Aug 08:39:17 08:42:41 23° 93° (E) 08:46:05 437.485
BRITE-PL 31 Aug 08:40:48 08:44:58 21° 302° (WNW) 08:49:04 437.365/2234.400
SO-50 31 Aug 08:43:01 08:46:56 28° 244° (WSW) 08:50:46 436.795
PRISM 31 Aug 08:46:35 08:50:38 62° 72° (ENE) 08:54:45 437.425
BEESAT 2 31 Aug 08:50:18 08:51:51 12° 110° (ESE) 08:53:24 435.950
BEESAT 3 31 Aug 08:58:13 09:01:29 26° 117° (ESE) 09:04:48 437.485
AAUSAT CUBESAT 2 31 Aug 08:58:58 09:02:10 21° 92° (E) 09:05:21 437.432
STRAND 1 31 Aug 08:59:44 09:03:07 18° 270° (W) 09:06:32 437.568
CANX-2 31 Aug 09:08:31 09:12:47 72° 103° (ESE) 09:17:01 2200.000
COMPASS 1 31 Aug 09:10:39 09:14:29 34° 96° (E) 09:18:18 437.405
UWE-3 31 Aug 09:12:31 09:15:26 18° 91° (E) 09:18:20 435.000/436.395/437.385
CUTE 1.7 + AOD 2 31 Aug 09:13:48 09:18:03 72° 102° (ESE) 09:22:18 437.475
UNISAT 6 31 Aug 09:13:56 09:16:54 18° 60° (ENE) 09:19:50 437.425
ZACube-1 31 Aug 09:18:31 09:20:40 14° 89° (E) 09:22:49 437.345
AO-85 31 Aug 09:20:04 09:21:21 11° 353° (N) 09:22:37 145.980
DOVE 4 31 Aug 09:20:46 09:25:04 29° 297° (WNW) 09:29:09 437.250
CUBEBUG 2 31 Aug 09:22:48 09:26:39 33° 96° (E) 09:30:25 437.445
DANDE 31 Aug 09:27:04 09:30:51 18° 65° (ENE) 09:35:14 436.750
CINEMA 3 31 Aug 09:31:52 09:36:20 60° 287° (WNW) 09:40:34 145.822/145.860
NOAA 18 31 Aug 09:32:32 09:36:29 21° 304° (NW) 09:40:24 137.9125
CUSAT 1 31 Aug 09:33:20 09:39:35 46° 72° (ENE) 09:46:57 437.405
AIST 1 31 Aug 09:35:18 09:39:41 86° 97° (E) 09:44:07
GOMX 1 31 Aug 09:35:31 09:38:19 14° 306° (NW) 09:41:04 467.674
Cosmos 2504 31 Aug 09:37:25 09:44:16 29° 296° (WNW) 09:50:46 435.465 / 435.565
ISS 31 Aug 09:37:32 09:40:50 79° 339° (NNW) 09:44:08 145.825
NOAA 15 31 Aug 09:48:26 09:50:02 11° 310° (NW) 09:51:38 137.62
Cubesat XI-IV 31 Aug 09:49:09 09:51:38 13° 308° (NW) 09:54:07 437.490
ANTELSAT 31 Aug 09:49:21 09:53:27 34° 67° (ENE) 09:57:29 437.575/2403.000
RS-15 31 Aug 09:54:21 10:06:48 87° 51° (NE) 10:19:06 29.354- 29.394
CUTE-I 31 Aug 10:00:32 10:02:00 11° 310° (NW) 10:03:28 437.470
DELFI C3 31 Aug 10:03:55 10:06:39 18° 91° (E) 10:09:23 145.870
HO-68 31 Aug 10:07:20 10:14:25 64° 293° (WNW) 10:21:28 435.675
YUBILEINY 31 Aug 10:07:56 10:10:29 11° 319° (NW) 10:13:02 435.215
SEEDS 31 Aug 10:14:35 10:18:31 38° 291° (WNW) 10:22:26 437.485
Oscar 11 31 Aug 10:16:18 10:20:33 53° 100° (E) 10:24:47 145.826/435.025
TIGRISAT 31 Aug 10:18:38 10:23:07 62° 73° (ENE) 10:27:31 435.000
PRISM 31 Aug 10:24:05 10:26:21 14° 270° (W) 10:28:39 437.425
BEESAT 2 31 Aug 10:25:05 10:29:02 85° 305° (NW) 10:33:04 435.950
GONETS M04 31 Aug 10:25:22 10:30:37 18° 73° (ENE) 10:35:52
FUNcube-1 31 Aug 10:29:24 10:33:33 68° 102° (ESE) 10:37:40 145.935
QB50P1 31 Aug 10:33:24 10:36:10 17° 60° (ENE) 10:38:56 145.935-145.965
AAUSAT CUBESAT 2 31 Aug 10:33:53 10:37:50 42° 290° (WNW) 10:41:47 437.432
PCSat 31 Aug 10:34:32 10:37:58 17° 105° (ESE) 10:41:25 145.827
BEESAT 3 31 Aug 10:35:17 10:39:00 40° 316° (NW) 10:42:46 437.485
Cosmos 2499 31 Aug 10:39:42 10:43:23 14° 75° (ENE) 10:46:56 435.465 / 435.565
POPSAT HIP 1 31 Aug 10:43:21 10:46:30 20° 62° (ENE) 10:49:40 437.405
CANX-2 31 Aug 10:45:46 10:48:07 15° 300° (WNW) 10:50:28 2200.000
COMPASS 1 31 Aug 10:46:24 10:49:56 27° 294° (WNW) 10:53:28 437.405
UWE-3 31 Aug 10:48:10 10:52:12 47° 289° (WNW) 10:56:10 435.000/436.395/437.385
UNISAT 6 31 Aug 10:48:39 10:53:11 65° 258° (WSW) 10:57:38 437.425
CUTE 1.7 + AOD 2 31 Aug 10:51:00 10:53:23 15° 300° (WNW) 10:55:45 437.475
ZACube-1 31 Aug 10:53:18 10:57:25 64° 287° (WNW) 11:01:30 437.345
CUBEBUG 2 31 Aug 10:59:38 11:03:12 27° 295° (WNW) 11:06:41 437.445
AO-85 31 Aug 11:01:28 11:03:50 14° 18° (NNE) 11:06:07 145.980
HUMSAT D 31 Aug 11:03:43 11:07:31 36° 97° (E) 11:11:20 437.325/437.525
DUCHIFAT 1 31 Aug 11:05:28 11:09:08 29° 66° (ENE) 11:12:49 145.980
DANDE 31 Aug 11:08:27 11:14:01 89° 79° (E) 11:21:17 436.750
QB50P2 31 Aug 11:13:46 11:17:47 41° 69° (ENE) 11:21:48 145.880/145.840
JAS-2 31 Aug 11:13:59 11:18:27 27° 59° (ENE) 11:23:17 435.910
ISS 31 Aug 11:14:21 11:17:33 46° 1° (N) 11:20:44 145.825
CUSAT 1 31 Aug 11:15:25 11:21:37 43° 267° (W) 11:28:50 437.405
AIST 1 31 Aug 11:16:12 11:17:58 12° 298° (WNW) 11:19:45
POLYITAN 1 31 Aug 11:16:15 11:20:17 41° 69° (ENE) 11:24:18 437.675
ESTCUBE 1 31 Aug 11:17:20 11:17:39 10° 85° (E) 11:17:59 437.505/2401.250
NANOSAT C BR1 31 Aug 11:20:55 11:24:57 43° 69° (ENE) 11:28:59 145.865
ANTELSAT 31 Aug 11:26:12 11:30:11 29° 265° (W) 11:34:07 437.575/2403.000
AIST 2 31 Aug 11:34:18 11:37:43 26° 116° (ESE) 11:41:10 435.215
DELFI C3 31 Aug 11:37:53 11:41:44 47° 289° (WNW) 11:45:36 145.870
BUGSAT 1 31 Aug 11:43:21 11:47:08 32° 67° (ENE) 11:50:55 437.445
CUBEBUG 1 31 Aug 11:45:01 11:47:05 13° 88° (E) 11:49:08 437.445
Oscar 19 31 Aug 11:52:45 11:55:10 13° 53° (NE) 11:57:35 437.125/150
Oscar 11 31 Aug 11:53:16 11:56:20 19° 298° (WNW) 11:59:23 145.826/435.025
VELOX 1 31 Aug 11:53:52 11:55:55 13° 88° (E) 11:57:58 145.980
HO-68 31 Aug 11:56:34 12:00:51 17° 315° (NW) 12:05:08 435.675
TIGRISAT 31 Aug 11:57:17 12:00:12 17° 270° (W) 12:03:05 435.000
BEESAT 2 31 Aug 12:04:45 12:07:29 17° 329° (NNW) 12:10:13 435.950
FUNcube-1 31 Aug 12:07:00 12:09:19 15° 300° (WNW) 12:11:36 145.935
QB50P1 31 Aug 12:07:17 12:11:31 62° 259° (W) 12:15:46 145.935-145.965
AUBIESAT-1 31 Aug 12:07:18 12:10:30 23° 98° (E) 12:13:30 437.475
RS-15 31 Aug 12:07:44 12:17:59 33° 256° (WSW) 12:28:07 29.354- 29.394
PCSat 31 Aug 12:15:14 12:20:40 85° 306° (NW) 12:26:08 145.827
BEESAT 3 31 Aug 12:16:16 12:17:43 12° 338° (NNW) 12:19:11 437.485
M-CUBED/EXP-1 PRIME 31 Aug 12:16:20 12:20:07 35° 102° (ESE) 12:23:35 437.505
GONETS M04 31 Aug 12:17:07 12:25:51 75° 95° (E) 12:34:41
POPSAT HIP 1 31 Aug 12:17:50 12:21:59 49° 261° (W) 12:26:09 437.405
Cosmos 2499 31 Aug 12:27:18 12:35:12 70° 95° (E) 12:42:32 435.465 / 435.565
UKube-1 31 Aug 12:29:03 12:31:37 15° 90° (E) 12:34:10 .
O/OREOS (USA 219) 31 Aug 12:35:47 12:37:39 12° 97° (E) 12:39:33 437.305
HUMSAT D 31 Aug 12:39:42 12:43:00 24° 295° (WNW) 12:46:18 437.325/437.525
DUCHIFAT 1 31 Aug 12:40:57 12:44:46 32° 264° (W) 12:48:36 145.980
AO-85 31 Aug 12:41:18 12:45:31 41° 42° (NE) 12:49:25 145.980
AISAT 31 Aug 12:41:42 12:45:55 38° 97° (E) 12:50:04 437.250
QB50P2 31 Aug 12:50:21 12:53:45 23° 267° (W) 12:57:09 145.880/145.840
ESTCUBE 1 31 Aug 12:50:38 12:55:13 82° 105° (ESE) 12:59:45 437.505/2401.250
ISS 31 Aug 12:50:57 12:54:15 82° 22° (NNE) 12:57:33 145.825
50 SAT 31 Aug 12:51:24 12:54:56 45° 99° (E) 12:58:27 437.505
DANDE 31 Aug 12:52:39 12:56:27 18° 273° (W) 13:00:49 436.750
POLYITAN 1 31 Aug 12:52:53 12:56:15 22° 267° (W) 12:59:38 437.675
NANOSAT C BR1 31 Aug 12:57:35 13:00:52 21° 267° (W) 13:04:10 145.865
JAS-2 31 Aug 12:58:04 13:03:13 52° 261° (W) 13:08:53 435.910
AIST 2 31 Aug 13:12:04 13:16:00 44° 315° (NW) 13:20:01 435.215
ITAMSAT 1 31 Aug 13:16:49 13:18:37 12° 51° (NE) 13:20:25 435.822/435.867
SPROUT 31 Aug 13:17:23 13:21:31 45° 99° (E) 13:25:36 437.525
BUGSAT 1 31 Aug 13:18:48 13:22:31 29° 265° (W) 13:26:13 437.445
CUBEBUG 1 31 Aug 13:19:28 13:23:56 77° 285° (WNW) 13:28:20 437.445
TISAT 1 31 Aug 13:22:46 13:24:34 12° 88° (E) 13:26:22 437.305
Oscar 19 31 Aug 13:28:27 13:33:36 72° 72° (ENE) 13:38:49 437.125/150
VELOX 1 31 Aug 13:28:28 13:32:58 79° 286° (WNW) 13:37:24 145.980
DX 1 31 Aug 13:31:22 13:35:47 78° 103° (ESE) 13:40:10 434.975-435.025
Gurwin Techsat 1B 31 Aug 13:33:35 13:38:33 41° 66° (ENE) 13:43:31 435.225
AUBIESAT-1 31 Aug 13:41:23 13:45:06 35° 299° (WNW) 13:48:32 437.475
M-CUBED/EXP-1 PRIME 31 Aug 13:51:04 13:54:30 25° 302° (WNW) 13:57:41 437.505
AO-7 31 Aug 13:52:48 13:59:27 28° 48° (NE) 14:06:04 29.400- 29.500
PCSat 31 Aug 14:00:39 14:04:52 22° 327° (NNW) 14:09:07 145.827
UKube-1 31 Aug 14:03:47 14:08:06 64° 288° (WNW) 14:12:22 .
O/OREOS (USA 219) 31 Aug 14:11:51 14:16:22 83° 298° (WNW) 14:20:57 437.305
GONETS M04 31 Aug 14:16:09 14:23:37 30° 299° (WNW) 14:31:10
AISAT 31 Aug 14:18:30 14:22:14 27° 296° (WNW) 14:25:58 437.250
AO-85 31 Aug 14:22:07 14:25:48 28° 244° (WSW) 14:29:14 145.980
Cosmos 2499 31 Aug 14:22:26 14:28:56 28° 296° (WNW) 14:35:08 435.465 / 435.565
ITUPSAT 1 31 Aug 14:25:29 14:27:28 12° 87° (E) 14:29:25 437.325
50 SAT 31 Aug 14:25:51 14:28:12 17° 297° (WNW) 14:30:33 437.505
ISS 31 Aug 14:27:47 14:30:27 23° 219° (SW) 14:33:06 145.825
ESTCUBE 1 31 Aug 14:28:53 14:31:24 15° 302° (WNW) 14:33:56 437.505/2401.250
ITAMSAT 1 31 Aug 14:52:00 14:57:06 63° 70° (ENE) 15:02:14 435.822/435.867
AIST 2 31 Aug 14:53:35 14:55:32 13° 337° (NNW) 14:57:31 435.215
SPROUT 31 Aug 14:53:55 14:57:11 22° 297° (WNW) 15:00:26 437.525
SWISSCUBE 31 Aug 14:54:38 14:58:38 26° 94° (E) 15:02:36 437.505
TISAT 1 31 Aug 14:56:32 15:00:45 74° 285° (WNW) 15:04:55 437.305
CUBEBUG 1 31 Aug 14:58:01 14:59:27 11° 305° (NW) 15:00:51 437.445
VELOX 1 31 Aug 15:07:05 15:08:40 12° 305° (NW) 15:10:15 145.980
DX 1 31 Aug 15:08:57 15:11:24 15° 302° (WNW) 15:13:51 434.975-435.025
Oscar 19 31 Aug 15:10:03 15:13:29 18° 271° (W) 15:16:56 437.125/150
BEESAT 31 Aug 15:11:04 15:15:23 33° 96° (E) 15:19:40 436.000
Gurwin Techsat 1B 31 Aug 15:13:52 15:18:36 32° 265° (W) 15:23:21 435.225
BEESAT 2 31 Aug 15:26:21 15:26:42 10° 17° (NNE) 15:27:04 435.950
BEESAT 3 31 Aug 15:34:32 15:36:40 14° 26° (NNE) 15:38:48 437.485
AO-7 31 Aug 15:42:54 15:51:18 90° 63° (ENE) 15:59:42 29.400- 29.500
PCSat 31 Aug 15:48:55 15:50:25 11° 352° (N) 15:51:56 145.827
O/OREOS (USA 219) 31 Aug 15:53:54 15:56:32 15° 317° (NW) 15:59:11 437.305
ITUPSAT 1 31 Aug 16:01:11 16:05:59 89° 282° (WNW) 16:10:47 437.325
YUBILEINY 31 Aug 16:10:32 16:18:10 31° 63° (ENE) 16:25:42 435.215
HORYU 2 31 Aug 16:10:53 16:14:17 22° 62° (ENE) 16:17:41 437.375
MOZHAYETS 4 31 Aug 16:23:25 16:27:25 29° 95° (E) 16:31:25
CUTE-I 31 Aug 16:29:08 16:29:55 10° 49° (NE) 16:30:42 437.470
SWISSCUBE 31 Aug 16:32:05 16:36:36 43° 292° (WNW) 16:41:06 437.505
ITAMSAT 1 31 Aug 16:33:14 16:37:01 20° 269° (W) 16:40:49 435.822/435.867
TISAT 1 31 Aug 16:35:25 16:35:37 10° 305° (NW) 16:35:48 437.305
BRITE-PL 31 Aug 16:38:52 16:42:43 21° 58° (ENE) 16:46:44 437.365/2234.400
BEESAT 31 Aug 16:48:52 16:53:10 34° 294° (WNW) 16:57:27 436.000
BEESAT 2 31 Aug 17:02:12 17:05:47 30° 40° (NE) 17:09:21 435.950
BEESAT 3 31 Aug 17:11:16 17:15:11 56° 48° (NE) 17:19:05 437.485
DOVE 4 31 Aug 17:17:12 17:19:17 12° 53° (NE) 17:21:22 437.250
KKS-1 31 Aug 17:22:24 17:26:53 79° 104° (ESE) 17:31:20 437.445
LilacSat-2 31 Aug 17:26:30 17:29:07 18° 63° (ENE) 17:31:44 437.200
GOMX 1 31 Aug 17:29:47 17:34:15 28° 62° (ENE) 17:38:51 467.674
Cosmos 2504 31 Aug 17:30:21 17:36:38 30° 65° (ENE) 17:42:49 435.465 / 435.565
PCSat 31 Aug 17:33:37 17:36:22 14° 19° (NNE) 17:39:07 145.827
AO-7 31 Aug 17:38:53 17:45:08 23° 270° (W) 17:51:26 29.400- 29.500
ITUPSAT 1 31 Aug 17:40:35 17:43:08 15° 304° (NW) 17:45:42 437.325
NOAA 18 31 Aug 17:41:19 17:46:16 35° 63° (ENE) 17:51:13 137.9125
STARS 31 Aug 17:46:11 17:50:35 70° 103° (ESE) 17:54:56 437.465
HORYU 2 31 Aug 17:46:13 17:50:32 49° 260° (W) 17:54:52 437.375
NOAA 15 31 Aug 17:50:28 17:55:33 52° 68° (ENE) 18:00:41 137.62
Cubesat XI-IV 31 Aug 17:53:25 17:58:28 44° 67° (ENE) 18:03:30 437.490
Cosmos 2491 31 Aug 17:54:12 18:02:28 50° 88° (E) 18:10:48 435.465 / 435.565
CUBESAT XI-V 31 Aug 17:55:09 17:59:28 34° 96° (E) 18:03:46 437.345
MOZHAYETS 4 31 Aug 18:00:28 18:04:38 36° 293° (WNW) 18:08:49
CUTE-I 31 Aug 18:03:40 18:08:50 53° 69° (ENE) 18:14:01 437.470
YUBILEINY 31 Aug 18:07:04 18:15:48 71° 266° (W) 18:24:25 435.215
AIST 2 31 Aug 18:13:44 18:16:12 15° 26° (NNE) 18:18:41 435.215
BRITE-PL 31 Aug 18:15:32 18:20:35 70° 259° (WSW) 18:26:04 437.365/2234.400
CANX-2 31 Aug 18:32:36 18:33:40 11° 56° (ENE) 18:34:45 2200.000
CUTE 1.7 + AOD 2 31 Aug 18:37:51 18:38:52 11° 56° (ENE) 18:39:53 437.475
BEESAT 2 31 Aug 18:39:56 18:43:42 40° 240° (WSW) 18:47:27 435.950
BEESAT 3 31 Aug 18:49:42 18:52:29 18° 246° (WSW) 18:55:16 437.485
DOVE 4 31 Aug 18:50:46 18:55:58 64° 72° (ENE) 19:01:15 437.250
HO-68 31 Aug 18:52:46 18:59:06 35° 58° (ENE) 19:05:27 435.675
LilacSat-2 31 Aug 18:59:27 19:03:08 44° 261° (W) 19:06:49 437.200
CINEMA 3 31 Aug 19:00:09 19:04:17 27° 64° (ENE) 19:08:20 145.822/145.860
KKS-1 31 Aug 19:00:22 19:02:52 15° 303° (WNW) 19:05:23 437.445
GOMX 1 31 Aug 19:06:55 19:12:02 51° 262° (W) 19:17:23 467.674
PCSat 31 Aug 19:16:20 19:21:23 37° 44° (NE) 19:26:24 145.827
NOAA 18 31 Aug 19:21:38 19:26:51 42° 262° (W) 19:32:05 137.9125
Cosmos 2504 31 Aug 19:23:26 19:30:30 59° 268° (W) 19:37:30 435.465 / 435.565
STARS 31 Aug 19:23:44 19:26:26 16° 301° (WNW) 19:29:07 437.465
STRAND 1 31 Aug 19:25:58 19:29:23 18° 90° (E) 19:32:47 437.568
NOAA 15 31 Aug 19:31:18 19:35:37 25° 267° (W) 19:39:58 137.62
CUBESAT XI-V 31 Aug 19:32:38 19:36:48 32° 294° (WNW) 19:40:59 437.345
Cubesat XI-IV 31 Aug 19:34:00 19:38:41 30° 265° (W) 19:43:22 437.490
SEEDS 31 Aug 19:34:36 19:38:05 26° 66° (ENE) 19:41:34 437.485
AIST 1 31 Aug 19:38:35 19:42:34 32° 72° (ENE) 19:46:30
CUTE-I 31 Aug 19:44:51 19:49:11 25° 267° (W) 19:53:32 437.470
Cosmos 2491 31 Aug 19:51:13 19:59:27 44° 291° (WNW) 20:07:48 435.465 / 435.565
AIST 2 31 Aug 19:51:23 19:55:33 59° 48° (NE) 19:59:41 435.215
AAUSAT CUBESAT 2 31 Aug 19:52:52 19:56:07 23° 64° (ENE) 19:59:24 437.432
FUNcube-1 31 Aug 19:55:22 19:56:52 12° 57° (ENE) 19:58:22 145.935
BRITE-PL 31 Aug 19:59:18 20:00:11 10° 279° (W) 20:01:05 437.365/2234.400
CANX-2 31 Aug 20:04:37 20:08:49 81° 75° (ENE) 20:13:02 2200.000
COMPASS 1 31 Aug 20:04:51 20:08:39 36° 69° (ENE) 20:12:28 437.405
YUBILEINY 31 Aug 20:06:06 20:10:54 16° 288° (WNW) 20:15:42 435.215
CUTE 1.7 + AOD 2 31 Aug 20:09:47 20:13:59 81° 75° (ENE) 20:18:13 437.475
UWE-3 31 Aug 20:12:41 20:16:23 26° 65° (ENE) 20:20:02 435.000/436.395/437.385
ZACube-1 31 Aug 20:17:33 20:20:41 20° 63° (ENE) 20:23:47 437.345
CUBEBUG 2 31 Aug 20:23:54 20:28:19 46° 70° (ENE) 20:32:36 437.445
GONETS M04 31 Aug 20:28:14 20:31:30 12° 43° (NE) 20:34:46
DOVE 4 31 Aug 20:30:08 20:34:05 21° 271° (W) 20:38:04 437.250
CINEMA 3 31 Aug 20:36:22 20:41:11 47° 262° (W) 20:45:56 145.822/145.860
HO-68 31 Aug 20:39:26 20:46:31 59° 258° (WSW) 20:53:38 435.675
DELFI C3 31 Aug 20:53:38 20:56:20 18° 62° (ENE) 20:59:02 145.870
PCSat 31 Aug 20:59:44 21:04:55 46° 244° (WSW) 21:10:05 145.827
O/OREOS (USA 219) 31 Aug 21:02:19 21:02:47 10° 36° (NE) 21:03:16 437.305
STRAND 1 31 Aug 21:04:00 21:09:05 70° 288° (WNW) 21:14:11 437.568
SEEDS 31 Aug 21:09:53 21:13:40 34° 264° (W) 21:17:30 437.485
Oscar 11 31 Aug 21:14:22 21:18:38 66° 73° (ENE) 21:22:55 145.826/435.025
AIST 1 31 Aug 21:16:19 21:20:06 28° 271° (W) 21:23:50
Cosmos 2504 31 Aug 21:21:25 21:22:09 10° 290° (WNW) 21:22:54 435.465 / 435.565
AUBIESAT-1 31 Aug 21:24:51 21:26:07 11° 48° (NE) 21:27:24 437.475
AAUSAT CUBESAT 2 31 Aug 21:27:34 21:31:24 38° 263° (W) 21:35:18 437.432
FUNcube-1 31 Aug 21:28:04 21:32:28 84° 72° (ENE) 21:36:45 145.935
AIST 2 31 Aug 21:30:38 21:33:39 19° 247° (WSW) 21:36:40 435.215
M-CUBED/EXP-1 PRIME 31 Aug 21:32:57 21:35:40 16° 52° (NE) 21:38:23 437.505
COMPASS 1 31 Aug 21:40:59 21:44:19 23° 267° (W) 21:47:41 437.405
CANX-2 31 Aug 21:43:59 21:45:15 11° 273° (W) 21:46:32 2200.000
UWE-3 31 Aug 21:48:29 21:52:42 39° 263° (W) 21:56:51 435.000/436.395/437.385
CUTE 1.7 + AOD 2 31 Aug 21:49:05 21:50:24 11° 273° (W) 21:51:44 437.475
ZACube-1 31 Aug 21:52:21 21:56:39 52° 260° (W) 22:00:53 437.345
Cosmos 2491 31 Aug 21:56:45 21:59:19 11° 319° (NW) 22:01:54 435.465 / 435.565
HUMSAT D 31 Aug 21:58:22 22:02:15 41° 70° (ENE) 22:06:08 437.325/437.525
PRISM 31 Aug 21:59:24 22:03:34 59° 102° (ESE) 22:07:41 437.425
CUBEBUG 2 31 Aug 22:01:32 22:05:08 22° 268° (W) 22:08:41 437.445
Cosmos 2499 31 Aug 22:13:55 22:19:58 29° 65° (ENE) 22:26:02 435.465 / 435.565
ESTCUBE 1 31 Aug 22:19:00 22:21:48 16° 59° (ENE) 22:24:36 437.505/2401.250
GONETS M04 31 Aug 22:22:44 22:31:14 47° 70° (ENE) 22:39:39
DELFI C3 31 Aug 22:27:02 22:30:51 48° 261° (W) 22:34:43 145.870
HO-68 31 Aug 22:33:49 22:35:47 11° 278° (W) 22:37:44 435.675
UNISAT 6 31 Aug 22:37:20 22:40:25 19° 91° (E) 22:43:28 437.425
O/OREOS (USA 219) 31 Aug 22:38:54 22:43:23 48° 58° (ENE) 22:47:50 437.305
CUSAT 1 31 Aug 22:43:02 22:45:33 19° 84° (E) 22:48:32 437.405
CUBEBUG 1 31 Aug 22:44:11 22:47:16 19° 60° (ENE) 22:50:21 437.445
STRAND 1 31 Aug 22:45:13 22:47:23 13° 308° (NW) 22:49:33 437.568
Oscar 11 31 Aug 22:52:50 22:55:13 14° 271° (W) 22:57:37 145.826/435.025
VELOX 1 31 Aug 22:54:16 22:57:29 20° 61° (ENE) 23:00:43 145.980
AUBIESAT-1 31 Aug 22:55:10 22:59:45 61° 66° (ENE) 23:04:13 437.475
DX 1 31 Aug 22:56:27 22:58:58 15° 58° (ENE) 23:01:28 434.975-435.025
SO-50 31 Aug 22:59:43 23:04:13 39° 119° (ESE) 23:08:40 436.795
M-CUBED/EXP-1 PRIME 31 Aug 23:04:50 23:09:34 87° 70° (ENE) 23:14:14 437.505
FUNcube-1 31 Aug 23:07:51 23:09:16 11° 273° (W) 23:10:40 145.935
ANTELSAT 31 Aug 23:13:26 23:17:31 42° 98° (E) 23:21:33 437.575/2403.000
UKube-1 31 Aug 23:26:51 23:30:11 22° 62° (ENE) 23:33:32 .
50 SAT 31 Aug 23:32:05 23:35:22 35° 69° (ENE) 23:38:41 437.505
HUMSAT D 31 Aug 23:34:56 23:38:03 21° 268° (W) 23:41:11 437.325/437.525
PRISM 31 Aug 23:35:43 23:38:27 17° 300° (WNW) 23:41:10 437.425
AISAT 31 Aug 23:42:20 23:46:41 55° 71° (ENE) 23:51:05 437.250
TIGRISAT 31 Aug 23:42:53 23:47:12 80° 103° (ESE) 23:51:27 435.000
QB50P1 31 Aug 23:49:13 23:51:55 16° 90° (E) 23:54:36 145.935-145.965
ESTCUBE 1 31 Aug 23:53:37 23:58:05 71° 257° (WSW) 00:02:37 437.505/2401.250
POPSAT HIP 1 31 Aug 23:59:21 00:02:31 20° 92° (E) 00:05:40 437.405
JAS-2 01 Sep 00:01:52 00:07:08 22° 89° (E) 00:12:42 435.910
Cosmos 2499 01 Sep 00:06:40 00:13:35 61° 267° (W) 00:20:36 435.465 / 435.565
UNISAT 6 01 Sep 00:13:17 00:17:26 48° 290° (WNW) 00:21:31 437.425
SPROUT 01 Sep 00:14:09 00:18:22 56° 72° (ENE) 00:22:37 437.525
TISAT 1 01 Sep 00:17:39 00:20:25 17° 60° (ENE) 00:23:10 437.305
CUBEBUG 1 01 Sep 00:18:46 00:23:08 59° 259° (WSW) 00:27:33 437.445
O/OREOS (USA 219) 01 Sep 00:18:53 00:22:30 23° 257° (WSW) 00:26:06 437.305
GONETS M04 01 Sep 00:19:47 00:28:07 48° 272° (W) 00:36:25
DUCHIFAT 1 01 Sep 00:20:59 00:24:41 29° 96° (E) 00:28:21 145.980
DANDE 01 Sep 00:23:54 00:26:37 74° 99° (E) 00:29:54 436.750
CUSAT 1 01 Sep 00:23:59 00:27:10 33° 293° (WNW) 00:31:12 437.405
VELOX 1 01 Sep 00:29:12 00:33:34 56° 259° (W) 00:38:00 145.980
DX 1 01 Sep 00:30:12 00:34:35 76° 256° (WSW) 00:39:00 434.975-435.025
QB50P2 01 Sep 00:30:23 00:34:27 44° 99° (E) 00:38:29 145.880/145.840
AUBIESAT-1 01 Sep 00:31:10 00:34:29 19° 263° (W) 00:37:46 437.475
POLYITAN 1 01 Sep 00:32:53 00:36:57 44° 99° (E) 00:40:57 437.675
